Regional Weather Roundup
Issued by NWS

Home | Current Version | Previous Version | Graphics & Text | Print | Product List | Glossary On
Versions: 1 2 3 4 5 6 7 8 9 10 11 12 13 14 15 16 17 18 19 20 21 22 23 24 25 26 27 28
000
ASUS45 KSLC 250310
RWRUT

UTAH REGIONAL WEATHER ROUNDUP
NATIONAL WEATHER SERVICE SALT LAKE CITY UT
900 PM MDT FRI OCT 24 2014

UTZ001>011-023>025-250400-

NORTHERN UTAH

CITY           SKY/WX    TMP DP  RH WIND       PRES   REMARKS
BRIGHAM CITY   CLEAR     57  36  45 CALM      30.09S
HILL AFB       CLEAR     63  33  32 E8        30.11S
LOGAN          CLEAR     53  36  52 SW7       30.11R
OGDEN          CLEAR     59  36  42 S9        30.09S
PROVO AIRPORT  CLEAR     57  37  47 S5        30.12S
SALT LAKE CITY CLEAR     56  39  53 S5        30.08S
VERNAL         CLEAR     51  35  54 W6        30.22R
WENDOVER       CLEAR     55  34  44 CALM      30.06F
HEBER CITY     CLEAR     46  30  53 S3        30.19S
WEST JORDAN    CLEAR     61  36  39 SW9       30.11F

$$

UTZ012>022-026-027-250400-

SOUTHERN/CENTRAL UTAH

CITY           SKY/WX    TMP DP  RH WIND       PRES   REMARKS
BLANDING       CLEAR     51  32  47 N6        30.35S
BRYCE CANYON   CLEAR     36  26  67 W7        30.37R WCI  30
CEDAR CITY     CLEAR     52  27  38 CALM      30.20S
DELTA          CLEAR     61  23  24 S10       30.13R
HANKSVILLE       N/A     61  32  33 N9        30.18S
MILFORD        CLEAR     56  30  37 S6        30.16R
MOAB/CYNLANDS  CLEAR     61  33  35 W5        30.17R
PRICE          CLEAR     53  32  44 N9        30.26S
ST GEORGE      CLEAR     70  34  26 CALM      30.08S
KANAB            N/A     57  32  38 NE5       30.23R

$$

REGIONAL REPORTS     COLORADO/ARIZONA

CITY           SKY/WX    TMP DP  RH WIND       PRES   REMARKS
CRAIG, CO      CLEAR     53  28  38 S3        30.28R
GRAND JUNCTION CLEAR     52  34  50 NE8       30.22S
RIFLE          CLEAR     52  33  48 SE7       30.28R
MONTROSE       CLEAR     52  34  50 SE9       30.31R
CORTEZ         CLEAR     47  29  49 NE10      30.31R
PAGE, AZ       CLEAR     67  35  30 SW5       30.17R
GRAND CANYON   CLEAR     43  22  43 CALM      30.33S
KINGMAN        CLEAR     61  36  39 S8        30.11S
FLAGSTAFF      CLEAR     47  29  49 CALM      30.37R

$$

REGIONAL REPORTS    NEVADA/IDAHO/WYOMING

CITY           SKY/WX    TMP DP  RH WIND       PRES   REMARKS
LAS VEGAS, NV  CLEAR     81  35  19 S8        29.97R
ELY            CLEAR     54  25  32 S14       30.19R
ELKO           CLEAR     69  25  19 S18G28    30.02S
POCATELLO, ID  CLEAR     63  26  24 S13       30.06S
BURLEY         CLEAR     57  32  38 CALM      30.02R
EVANSTON, WY   CLEAR     56  24  29 S5        30.27R
ROCK SPRINGS   CLEAR     52  27  38 S8        30.26
KEMMERER       CLEAR     50  23  34 NW5       30.28S

$$



USA.gov is the U.S. government's official web portal to all federal, state and local government web resources and services.